Location: *
(52.5740°N, 9.7135°E)
Time: 02:03:03
(UTC+00:00)

Daily predictions for brighter satellites

Satellite Brightness Start Highest point End
(mag) Time Altitude Azimuth Time Altitude Azimuth Time Altitude Azimuth
Cosmos 2297 Rocket 2.3 00:03:26 10° NNW 00:09:08 80° ENE 00:14:47 10° SE
Cosmos 1862 3.6 00:07:57 24° SSE 00:09:54 50° E 00:13:30 10° NNE
Cosmos 1782 2.7 00:06:26 10° NNW 00:10:04 62° W 00:11:51 27° S
Cosmos 1726 Rocket 3.6 00:08:16 10° N 00:12:45 84° E 00:15:54 20° SSE
Cosmos 2112 Rocket 4.0 00:09:14 10° NNW 00:14:28 72° WSW 00:18:22 18° SSE
BREEZE-M DEB (TANK) 4.1 00:12:48 10° WSW 00:17:27 73° S 00:37:08 10° E
Cosmos 2058 2.9 00:18:00 24° SSW 00:20:14 67° WNW 00:24:11 10° N
Cosmos 1892 Rocket 4.0 00:18:39 20° SSE 00:21:26 55° E 00:25:40 10° NNE
Cosmos 44 3.0 00:19:22 18° SW 00:22:33 81° NW 00:27:02 10° NE
Dummy Sat-02 4.5 00:21:12 26° S 00:23:09 88° W 00:26:48 10° N
Cosmos 1980 Rocket 4.4 00:25:29 10° SE 00:28:17 14° E 00:31:05 10° ENE
Resurs 1-4 Rocket 4.3 00:25:26 10° NE 00:28:53 17° E 00:32:20 10° SE
ATLAS 5 CENTAUR R/B 4.3 00:27:00 10° NW 00:29:37 18° N 00:32:33 10° NE
Cosmos 1680 Rocket 3.9 00:24:47 10° NW 00:29:49 47° WSW 00:33:13 20° S
RESURS DK-1 2.2 00:27:57 10° NW 00:31:57 70° WSW 00:34:58 17° SSE
Spot 2 4.0 00:29:11 16° SSE 00:32:27 81° ENE 00:36:30 10° NNW
H-2A R/B 2.3 00:34:14 23° S 00:36:22 59° WSW 00:40:09 10° NNW
Cosmos 1697 Rocket 3.8 00:32:50 14° SSE 00:36:57 33° ESE 00:41:57 10° NE
Cosmos 1656 3.7 00:33:45 19° SSW 00:37:48 77° ESE 00:43:23 10° NNE
SeaSat 1 2.5 00:33:06 10° SE 00:38:00 81° NE 00:42:56 10° NNW
Cosmos 2227 Rocket 2.5 00:34:56 10° NNW 00:40:37 69° NE 00:46:17 10° SE
Cosmos 1356 Rocket 3.2 00:40:38 10° NNW 00:44:37 79° WSW 00:47:29 18° S
BlueWalker 3 1.7 00:42:45 10° W 00:46:27 90° NNE 00:50:06 10° ESE
ATLAS 2AS CENTAUR R/B 3.6 00:39:48 10° NW 00:46:30 53° NNE 00:53:03 10° ESE
Cosmos 1602 3.3 00:46:12 25° SSW 00:47:56 65° WNW 00:51:09 10° N
Cosmos-2242 3.1 00:45:12 10° N 00:49:23 74° ENE 00:53:05 13° SSE
Cosmos 1937 Rocket 4.1 00:47:15 14° SW 00:51:29 49° WNW 00:56:28 10° NNE
H-2A R/B 3.6 00:50:45 10° NE 00:54:19 27° E 00:57:54 10° SSE
ISS -3.8 00:51:05 10° W 00:54:25 63° SSW 00:57:44 10° ESE
Cosmos 1441 Rocket 2.9 00:58:03 20° S 01:00:22 81° ESE 01:03:52 10° NNE
NPP 4.2 00:56:02 10° NNE 01:01:20 52° E 01:06:09 12° S
Landsat 4 4.1 01:03:33 22° SW 01:04:37 29° W 01:07:10 10° NW
Cosmos 1933 4.1 01:01:08 10° NNW 01:04:42 36° W 01:07:01 18° SSW
ALOS 4.4 01:02:03 10° NE 01:05:18 19° E 01:08:31 10° SE
Cosmos 2221 3.8 01:05:53 10° N 01:09:55 39° ENE 01:13:55 10° SE
Cosmos 1125 Rocket 4.4 01:06:12 12° S 01:10:46 42° ESE 01:15:44 10° NE
CZ-2C R/B 3.7 01:11:02 15° SSW 01:14:48 32° W 01:19:46 10° NNW
Meteor 2-3 Rocket 3.9 01:10:11 15° SSW 01:15:00 74° WNW 01:20:51 10° N
Cosmos 1048 Rocket 4.3 01:16:29 10° NNW 01:21:39 50° WSW 01:26:48 10° S
Cosmos 2058 Rocket 3.7 01:17:55 10° NNW 01:22:05 41° W 01:25:28 15° SSW
Cosmos 1315 Rocket 3.3 01:18:51 10° NNW 01:22:24 39° W 01:25:07 16° SSW
IDEFIX/ARIANE 42P 2.6 01:22:18 10° NNE 01:27:32 87° WNW 01:32:15 13° SSW
BREEZE-M DEB 4.3 01:12:17 10° W 01:28:29 71° S 01:32:37 10° E
Cosmos 1812 Rocket 3.7 01:25:55 10° N 01:30:22 75° ENE 01:34:44 10° SSE
Cosmos 2082 4.4 01:24:51 10° NNW 01:30:31 59° NE 01:36:06 10° SE
CZ-2C R/B 4.1 01:30:32 10° N 01:34:53 32° WNW 01:39:06 10° SW
Lacrosse 5 rocket 2.0 01:31:44 10° WNW 01:35:38 56° NNE 01:39:30 10° E
Cosmos 2219 3.4 01:33:22 10° NNW 01:39:07 81° ENE 01:44:48 10° SE
Meteor 1-26 Rocket 4.5 01:34:10 10° NNW 01:39:22 49° W 01:44:31 10° SSW
CZ-4C R/B 3.4 01:38:58 10° W 01:43:36 39° NNW 01:49:32 10° NE
ADEOS II 3.1 01:38:41 10° NNE 01:43:40 42° E 01:48:37 10° S
Cosmos 921 Rocket 3.7 01:40:18 10° NNW 01:44:44 58° ENE 01:49:04 10° SE
Envisat 4.2 01:41:38 10° NNE 01:46:22 37° E 01:51:03 10° SSE
Cosmos 2263 Rocket 2.2 01:40:43 10° NNW 01:46:24 80° WSW 01:52:01 10° SSE
Cosmos 1867 4.3 01:41:35 10° WSW 01:46:53 49° NW 01:52:12 10° NE
SL-16 R/B 3.5 01:41:26 10° SE 01:47:25 51° ENE 01:53:29 10° N
Cosmos 1238 Rocket 3.6 01:45:26 10° N 01:50:44 82° E 01:55:58 10° SSE
Gbstr 26 Del rocket 4.3 01:45:42 10° WNW 01:51:51 52° SSW 01:59:03 10° SE
Cosmos 2297 Rocket 3.5 01:48:21 10° NW 01:52:32 22° WSW 01:56:43 10° SSW
CZ-2D R/B 2.4 01:49:49 10° NNE 01:55:06 69° ESE 02:00:17 10° S
BREEZE-M DEB (TANK) 3.2 02:01:12 10° WSW 02:02:44 15° SSW 02:04:12 10° SSE
DMSP B5D2-2 4.4 01:57:32 10° SSE 02:02:44 71° ENE 02:07:58 10° NNW
Meteor 2-6 Rocket 4.5 01:59:57 10° NNW 02:05:29 57° W 02:11:09 10° S
Resurs 1-4 Rocket 2.2 02:04:02 10° NNE 02:09:23 87° WNW 02:14:42 10° SSW
Cosmos 1758 Rocket 4.0 02:05:35 10° SSW 02:09:48 49° WNW 02:14:06 10° N
Cosmos 1602 Rocket 3.6 02:05:33 10° SSW 02:09:49 67° WNW 02:14:09 10° N
Cosmos 1980 Rocket 2.4 02:05:43 10° SSW 02:11:16 73° ESE 02:16:53 10° NE
Meteor 1-10 Rocket 4.3 02:05:46 10° NNW 02:11:27 88° WSW 02:17:13 10° S
Nadezhda 1 Rocket 4.4 02:05:48 10° NNW 02:11:48 48° W 02:17:40 10° SSW
Tiangong 0.3 02:11:25 10° S 02:12:19 11° S 02:13:14 10° SSE
ATLAS 5 CENTAUR R/B 3.5 02:09:40 10° NW 02:13:25 35° NNE 02:17:56 10° E
SeaSat 1 3.8 02:12:22 10° SSW 02:15:55 20° WSW 02:19:30 10° WNW
Cosmos 2181 Rocket 4.3 02:09:42 10° N 02:15:56 71° ENE 02:22:03 10° SSE
Cosmos 1626 Rocket 4.5 02:12:26 10° SW 02:16:24 35° WNW 02:20:27 10° N
H-2A R/B 3.6 02:14:04 10° NNE 02:18:32 31° E 02:22:54 10° SSE
Cosmos 1745 Rocket 4.2 02:13:12 10° SSW 02:19:28 62° WNW 02:25:49 10° N
Cosmos 1697 Rocket 3.1 02:15:07 10° SW 02:20:40 56° NW 02:26:16 10° NNE
FENGYUN 3A 4.0 02:16:36 10° N 02:21:51 55° WNW 02:27:06 10° SW
Cosmos 614 Rocket 4.5 02:17:32 10° NW 02:22:12 39° WSW 02:26:52 10° S
BlueWalker 3 2.4 02:20:35 10° W 02:23:56 35° SSW 02:27:17 10° SE
Cosmos 2227 Rocket 3.3 02:19:36 10° NW 02:24:12 26° WSW 02:28:46 10° SSW
Cosmos 1346 Rocket 3.3 02:21:07 10° S 02:24:41 52° E 02:28:17 10° NNE
